| time (UTC) | temp F | wind direction | speed MPH | gust MPH | rain 1hr in | rain 24hr in | rain mn in | humidity % | barometer mb |
| 20260904040205 | 54 | 240 | 0.0 | 0.0 | 0.00 | 0.20 | 0.20 | 92 | 1011.1 |
| 20260904035705 | 54 | 240 | 0.0 | 1.0 | 0.00 | 0.20 | 0.20 | 91 | 1011.0 |
| 20260904035205 | 55 | 240 | 0.0 | 0.0 | 0.00 | 0.20 | 0.20 | 91 | 1011.1 |
| 20260904034205 | 55 | 240 | 0.0 | 0.0 | 0.00 | 0.20 | 0.20 | 91 | 1011.0 |
| 20260904033705 | 55 | 240 | 0.0 | 0.0 | 0.00 | 0.20 | 0.20 | 91 | 1010.9 |
| 20260904033205 | 55 | 240 | 0.0 | 0.0 | 0.00 | 0.20 | 0.20 | 91 | 1010.9 |
| 20260904032204 | 56 | 259 | 2.0 | 3.0 | 0.00 | 0.20 | 0.20 | 91 | 1010.7 |
| 20260904031704 | 56 | 234 | 2.0 | 2.0 | 0.00 | 0.20 | 0.20 | 90 | 1010.7 |
| 20260904031205 | 57 | 272 | 0.0 | 1.0 | 0.00 | 0.20 | 0.20 | 90 | 1010.7 |
| 20260904030705 | 57 | 272 | 0.0 | 1.0 | 0.00 | 0.20 | 0.20 | 89 | 1010.6 |
| 20260904025704 | 58 | 272 | 1.0 | 2.0 | 0.00 | 0.20 | 0.20 | 88 | 1010.5 |
| 20260904025203 | 59 | 272 | 0.0 | 2.0 | 0.00 | 0.20 | 0.20 | 87 | 1010.5 |
| 20260904024705 | 59 | 272 | 1.0 | 2.0 | 0.00 | 0.20 | 0.20 | 86 | 1010.4 |
| 20260904024203 | 59 | 272 | 0.0 | 0.0 | 0.00 | 0.20 | 0.20 | 86 | 1010.5 |
| 20260904023704 | 59 | 272 | 0.0 | 1.0 | 0.00 | 0.20 | 0.20 | 85 | 1010.4 |
| 20260904023204 | 60 | 272 | 1.0 | 2.0 | 0.00 | 0.20 | 0.20 | 85 | 1010.4 |
| 20260904022705 | 60 | 272 | 0.0 | 2.0 | 0.00 | 0.20 | 0.20 | 85 | 1010.3 |
| 20260904022204 | 60 | 272 | 0.0 | 1.0 | 0.00 | 0.20 | 0.20 | 85 | 1010.3 |
| 20260904021705 | 60 | 272 | 1.0 | 2.0 | 0.00 | 0.20 | 0.20 | 84 | 1010.2 |
| 20260904021203 | 60 | 272 | 1.0 | 2.0 | 0.00 | 0.20 | 0.20 | 83 | 1010.2 |
| 20260904020205 | 60 | 272 | 1.0 | 3.0 | 0.00 | 0.20 | 0.20 | 83 | 1010.2 |
| 20260904015704 | 60 | 272 | 2.0 | 3.0 | 0.00 | 0.20 | 0.20 | 83 | 1010.1 |
| 20260904015204 | 61 | 269 | 3.0 | 3.0 | 0.00 | 0.20 | 0.20 | 82 | 1010.1 |
| 20260904014704 | 62 | 230 | 3.0 | 6.0 | 0.00 | 0.20 | 0.20 | 83 | 1010.0 |
| 20260904014204 | 62 | 231 | 3.0 | 6.0 | 0.00 | 0.20 | 0.20 | 82 | 1010.0 |
| 20260904013704 | 62 | 246 | 2.0 | 5.0 | 0.00 | 0.20 | 0.20 | 82 | 1010.0 |
| 20260904013206 | 62 | 264 | 3.0 | 5.0 | 0.00 | 0.20 | 0.20 | 83 | 1010.0 |
| 20260904012704 | 62 | 280 | 3.0 | 5.0 | 0.00 | 0.20 | 0.20 | 84 | 1010.0 |
| 20260904012203 | 62 | 304 | 2.0 | 3.0 | 0.00 | 0.20 | 0.20 | 84 | 1010.0 |
| 20260904011705 | 62 | 293 | 3.0 | 6.0 | 0.00 | 0.20 | 0.20 | 84 | 1009.9 |
| 20260904010704 | 62 | 323 | 3.0 | 5.0 | 0.00 | 0.20 | 0.20 | 85 | 1009.9 |
| 20260904010204 | 61 | 305 | 3.0 | 7.0 | 0.00 | 0.20 | 0.20 | 85 | 1009.9 |
| 20260904005705 | 61 | 334 | 2.0 | 6.0 | 0.00 | 0.20 | 0.20 | 85 | 1009.8 |
| 20260904005204 | 61 | 324 | 3.0 | 6.0 | 0.00 | 0.20 | 0.20 | 85 | 1009.8 |
| 20260904004705 | 61 | 319 | 4.0 | 8.0 | 0.00 | 0.20 | 0.20 | 86 | 1009.8 |
| 20260904004204 | 61 | 326 | 2.0 | 6.0 | 0.00 | 0.20 | 0.20 | 87 | 1009.7 |
| 20260904003703 | 61 | 302 | 1.0 | 3.0 | 0.00 | 0.20 | 0.20 | 88 | 1009.7 |
| 20260904003204 | 61 | 312 | 2.0 | 3.0 | 0.00 | 0.20 | 0.20 | 87 | 1009.8 |
| 20260904002703 | 61 | 355 | 1.0 | 3.0 | 0.00 | 0.20 | 0.20 | 88 | 1009.8 |
| 20260904002205 | 61 | 5 | 1.0 | 3.0 | 0.00 | 0.20 | 0.20 | 89 | 1009.8 |
| 20260904001704 | 60 | 24 | 2.0 | 5.0 | 0.00 | 0.20 | 0.20 | 88 | 1009.8 |
| 20260904001204 | 61 | 28 | 2.0 | 5.0 | 0.00 | 0.20 | 0.20 | 88 | 1009.8 |
| 20260903235704 | 62 | 56 | 4.0 | 6.0 | 0.00 | 0.20 | 0.20 | 87 | 1009.7 |
| 20260903234706 | 63 | 29 | 3.0 | 5.0 | 0.00 | 0.20 | 0.20 | 83 | 1009.7 |
| 20260903233704 | 63 | 118 | 1.0 | 3.0 | 0.00 | 0.20 | 0.20 | 83 | 1009.7 |
| 20260903233204 | 63 | 76 | 2.0 | 3.0 | 0.00 | 0.20 | 0.20 | 83 | 1009.7 |
| 20260903232703 | 63 | 5 | 2.0 | 3.0 | 0.00 | 0.20 | 0.20 | 85 | 1009.7 |
| 20260903232204 | 63 | 301 | 2.0 | 3.0 | 0.00 | 0.20 | 0.20 | 85 | 1009.8 |
| 20260903230705 | 61 | 339 | 0.0 | 3.0 | 0.00 | 0.20 | 0.20 | 90 | 1010.0 |
| 20260903230205 | 61 | 301 | 0.0 | 3.0 | 0.00 | 0.20 | 0.20 | 92 | 1010.0 |
| 20260903225704 | 61 | 319 | 1.0 | 2.0 | 0.01 | 0.20 | 0.20 | 92 | 1010.1 |
| 20260903225204 | 61 | 50 | 2.0 | 3.0 | 0.02 | 0.20 | 0.20 | 93 | 1010.1 |
| 20260903224204 | 60 | 21 | 0.0 | 1.0 | 0.05 | 0.20 | 0.20 | 94 | 1010.1 |
| 20260903223704 | 60 | 19 | 0.0 | 1.0 | 0.06 | 0.20 | 0.20 | 94 | 1010.2 |
| 20260903222703 | 59 | 88 | 0.0 | 2.0 | 0.08 | 0.20 | 0.20 | 94 | 1010.2 |
| 20260903222204 | 59 | 170 | 0.0 | 1.0 | 0.10 | 0.20 | 0.20 | 94 | 1010.2 |
| 20260903221705 | 59 | 294 | 1.0 | 2.0 | 0.11 | 0.20 | 0.20 | 94 | 1010.2 |
| 20260903221203 | 59 | 294 | 1.0 | 3.0 | 0.11 | 0.20 | 0.20 | 94 | 1010.2 |
| 20260903220205 | 59 | 219 | 1.0 | 3.0 | 0.12 | 0.20 | 0.20 | 94 | 1010.3 |
| 20260903215704 | 58 | 195 | 1.0 | 2.0 | 0.11 | 0.19 | 0.19 | 94 | 1010.3 |
| 20260903215204 | 58 | 169 | 0.0 | 2.0 | 0.11 | 0.18 | 0.18 | 93 | 1010.2 |
| 20260903214704 | 58 | 146 | 0.0 | 1.0 | 0.09 | 0.16 | 0.16 | 93 | 1010.3 |
| 20260903214204 | 58 | 146 | 1.0 | 2.0 | 0.09 | 0.15 | 0.15 | 93 | 1010.3 |
| 20260903213704 | 58 | 218 | 1.0 | 3.0 | 0.09 | 0.14 | 0.14 | 93 | 1010.3 |
| 20260903213204 | 58 | 240 | 2.0 | 3.0 | 0.09 | 0.14 | 0.14 | 92 | 1010.3 |
| 20260903212703 | 58 | 227 | 2.0 | 3.0 | 0.08 | 0.12 | 0.12 | 92 | 1010.3 |
| 20260903212204 | 58 | 187 | 2.0 | 3.0 | 0.07 | 0.10 | 0.10 | 92 | 1010.3 |
| 20260903211704 | 58 | 195 | 3.0 | 3.0 | 0.06 | 0.09 | 0.09 | 92 | 1010.2 |
| 20260903211204 | 58 | 180 | 1.0 | 2.0 | 0.06 | 0.09 | 0.09 | 92 | 1010.1 |
| 20260903210704 | 58 | 173 | 0.0 | 2.0 | 0.07 | 0.09 | 0.09 | 92 | 1010.1 |
| 20260903210205 | 58 | 148 | 1.0 | 3.0 | 0.06 | 0.08 | 0.08 | 92 | 1010.1 |
| 20260903205705 | 58 | 88 | 1.0 | 3.0 | 0.06 | 0.08 | 0.08 | 92 | 1010.1 |
| 20260903205203 | 58 | 200 | 2.0 | 3.0 | 0.05 | 0.07 | 0.07 | 92 | 1010.0 |
| 20260903204204 | 58 | 263 | 2.0 | 3.0 | 0.05 | 0.06 | 0.06 | 91 | 1009.8 |
| 20260903203704 | 58 | 262 | 2.0 | 3.0 | 0.05 | 0.05 | 0.05 | 91 | 1009.8 |
| 20260903203205 | 58 | 270 | 2.0 | 3.0 | 0.05 | 0.05 | 0.05 | 91 | 1009.8 |
| 20260903202703 | 58 | 272 | 3.0 | 6.0 | 0.04 | 0.04 | 0.04 | 90 | 1009.7 |
| 20260903201203 | 58 | 279 | 2.0 | 7.0 | 0.03 | 0.03 | 0.03 | 90 | 1009.6 |
| 20260903200704 | 58 | 314 | 3.0 | 7.0 | 0.02 | 0.02 | 0.02 | 90 | 1009.6 |
| 20260903200204 | 58 | 288 | 3.0 | 9.0 | 0.02 | 0.02 | 0.02 | 90 | 1009.6 |
| 20260903195703 | 58 | 274 | 6.0 | 10.0 | 0.02 | 0.02 | 0.02 | 89 | 1009.5 |
| 20260903194705 | 58 | 274 | 5.0 | 12.0 | 0.01 | 0.01 | 0.01 | 88 | 1009.5 |
| 20260903194204 | 59 | 296 | 7.0 | 12.0 | 0.01 | 0.01 | 0.01 | 86 | 1009.5 |
| 20260903193704 | 59 | 305 | 7.0 | 12.0 | 0.00 | 0.00 | 0.00 | 85 | 1009.4 |
| 20260903193204 | 59 | 294 | 7.0 | 12.0 | 0.00 | 0.00 | 0.00 | 85 | 1009.3 |
| 20260903192704 | 59 | 275 | 8.0 | 12.0 | 0.00 | 0.00 | 0.00 | 84 | 1009.3 |
| 20260903192205 | 59 | 290 | 8.0 | 14.0 | 0.00 | 0.00 | 0.00 | 84 | 1009.2 |
| 20260903191704 | 60 | 297 | 9.0 | 12.0 | 0.00 | 0.00 | 0.00 | 83 | 1009.2 |
| 20260903191204 | 60 | 309 | 9.0 | 12.0 | 0.00 | 0.00 | 0.00 | 82 | 1009.2 |
| 20260903190206 | 62 | 314 | 6.0 | 12.0 | 0.00 | 0.00 | 0.00 | 81 | 1009.0 |
| 20260903185705 | 61 | 316 | 5.0 | 12.0 | 0.00 | 0.00 | 0.00 | 81 | 1009.0 |
| 20260903185204 | 62 | 288 | 8.0 | 12.0 | 0.00 | 0.00 | 0.00 | 80 | 1009.0 |
| 20260903184706 | 62 | 309 | 6.0 | 13.0 | 0.00 | 0.00 | 0.00 | 81 | 1009.0 |
| 20260903184205 | 62 | 314 | 7.0 | 12.0 | 0.00 | 0.00 | 0.00 | 81 | 1008.9 |
| 20260903183703 | 61 | 306 | 7.0 | 12.0 | 0.00 | 0.00 | 0.00 | 81 | 1009.0 |
| 20260903183204 | 61 | 304 | 7.0 | 12.0 | 0.00 | 0.00 | 0.00 | 82 | 1008.7 |
| 20260903182205 | 61 | 271 | 6.0 | 10.0 | 0.00 | 0.00 | 0.00 | 82 | 1008.7 |
| 20260903181705 | 61 | 322 | 5.0 | 9.0 | 0.00 | 0.00 | 0.00 | 82 | 1008.7 |
| 20260903181203 | 61 | 294 | 6.0 | 10.0 | 0.00 | 0.00 | 0.00 | 82 | 1008.8 |
| 20260903180704 | 61 | 308 | 7.0 | 10.0 | 0.00 | 0.00 | 0.00 | 82 | 1008.7 |
| 20260903180204 | 61 | 292 | 7.0 | 10.0 | 0.00 | 0.00 | 0.00 | 82 | 1008.7 |
| 20260903175703 | 61 | 318 | 5.0 | 9.0 | 0.00 | 0.00 | 0.00 | 82 | 1008.6 |
| 20260903175204 | 61 | 311 | 5.0 | 12.0 | 0.00 | 0.00 | 0.00 | 82 | 1008.4 |
| 20260903174704 | 62 | 297 | 5.0 | 12.0 | 0.00 | 0.00 | 0.00 | 82 | 1008.4 |
| 20260903174205 | 62 | 336 | 4.0 | 10.0 | 0.00 | 0.00 | 0.00 | 82 | 1008.3 |
| 20260903173204 | 62 | 325 | 4.0 | 8.0 | 0.00 | 0.00 | 0.00 | 82 | 1008.3 |
| 20260903172705 | 62 | 325 | 5.0 | 9.0 | 0.00 | 0.00 | 0.00 | 81 | 1008.2 |
| 20260903172205 | 63 | 5 | 7.0 | 10.0 | 0.00 | 0.00 | 0.00 | 80 | 1008.1 |
| 20260903171706 | 63 | 17 | 7.0 | 9.0 | 0.00 | 0.00 | 0.00 | 80 | 1008.1 |
| 20260903170704 | 63 | 175 | 1.0 | 3.0 | 0.00 | 0.00 | 0.00 | 79 | 1007.9 |
| 20260903170204 | 62 | 317 | 2.0 | 3.0 | 0.00 | 0.00 | 0.00 | 79 | 1007.8 |
| 20260903165705 | 62 | 22 | 2.0 | 3.0 | 0.00 | 0.00 | 0.00 | 79 | 1007.9 |
| 20260903165204 | 62 | 16 | 2.0 | 3.0 | 0.00 | 0.00 | 0.00 | 81 | 1007.9 |
| 20260903164204 | 61 | 233 | 0.0 | 3.0 | 0.00 | 0.00 | 0.00 | 83 | 1007.8 |
| 20260903163705 | 61 | 251 | 2.0 | 6.0 | 0.00 | 0.00 | 0.00 | 84 | 1007.8 |
| 20260903162704 | 59 | 308 | 2.0 | 3.0 | 0.00 | 0.00 | 0.00 | 85 | 1007.8 |
| 20260903162204 | 59 | 232 | 2.0 | 3.0 | 0.00 | 0.00 | 0.00 | 86 | 1007.7 |
| 20260903161705 | 59 | 236 | 1.0 | 3.0 | 0.00 | 0.00 | 0.00 | 87 | 1007.7 |
| 20260903161204 | 59 | 218 | 2.0 | 3.0 | 0.00 | 0.00 | 0.00 | 87 | 1007.8 |
| 20260903160703 | 59 | 240 | 2.0 | 3.0 | 0.00 | 0.00 | 0.00 | 88 | 1007.7 |
| 20260903160205 | 59 | 235 | 2.0 | 3.0 | 0.00 | 0.00 | 0.00 | 90 | 1007.8 |
| 20260903155704 | 58 | 241 | 2.0 | 3.0 | 0.00 | 0.00 | 0.00 | 91 | 1007.8 |
| 20260903154704 | 57 | 269 | 1.0 | 3.0 | 0.00 | 0.00 | 0.00 | 95 | 1007.7 |
| 20260903154204 | 56 | 271 | 1.0 | 3.0 | 0.00 | 0.00 | 0.00 | 95 | 1007.7 |
| 20260903153704 | 56 | 308 | 1.0 | 2.0 | 0.00 | 0.00 | 0.00 | 95 | 1007.8 |
| 20260903153204 | 55 | 74 | 0.0 | 1.0 | 0.00 | 0.00 | 0.00 | 95 | 1007.8 |
| 20260903152204 | 55 | 74 | 0.0 | 0.0 | 0.00 | 0.00 | 0.00 | 96 | 1007.8 |
| 20260903151705 | 54 | 74 | 0.0 | 0.0 | 0.00 | 0.00 | 0.00 | 95 | 1007.8 |
| 20260903150704 | 54 | 74 | 0.0 | 0.0 | 0.00 | 0.00 | 0.00 | 95 | 1007.8 |
| 20260903145703 | 54 | 74 | 0.0 | 0.0 | 0.00 | 0.00 | 0.00 | 95 | 1007.8 |
| 20260903145204 | 53 | 74 | 0.0 | 0.0 | 0.00 | 0.00 | 0.00 | 95 | 1007.8 |
| 20260903144704 | 53 | 74 | 0.0 | 0.0 | 0.00 | 0.00 | 0.00 | 95 | 1007.8 |
| 20260903144203 | 53 | 74 | 0.0 | 0.0 | 0.00 | 0.00 | 0.00 | 95 | 1007.8 |
| 20260903143704 | 53 | 74 | 0.0 | 0.0 | 0.00 | 0.00 | 0.00 | 95 | 1007.7 |
| 20260903143204 | 53 | 74 | 0.0 | 0.0 | 0.00 | 0.00 | 0.00 | 95 | 1007.7 |
| 20260903142704 | 53 | 74 | 0.0 | 0.0 | 0.00 | 0.00 | 0.00 | 95 | 1007.7 |
| 20260903142204 | 52 | 74 | 0.0 | 1.0 | 0.00 | 0.00 | 0.00 | 95 | 1007.6 |
| 20260903141705 | 52 | 74 | 2.0 | 3.0 | 0.00 | 0.00 | 0.00 | 95 | 1007.6 |
| 20260903140703 | 52 | 202 | 0.0 | 0.0 | 0.00 | 0.00 | 0.00 | 94 | 1007.6 |
| 20260903140204 | 52 | 202 | 0.0 | 0.0 | 0.00 | 0.00 | 0.00 | 94 | 1007.6 |
| 20260903135703 | 52 | 202 | 0.0 | 1.0 | 0.00 | 0.00 | 0.00 | 94 | 1007.5 |
| 20260903135204 | 52 | 202 | 0.0 | 1.0 | 0.00 | 0.00 | 0.00 | 94 | 1007.5 |
| 20260903134705 | 52 | 202 | 0.0 | 0.0 | 0.00 | 0.00 | 0.00 | 94 | 1007.4 |
| 20260903134203 | 52 | 202 | 0.0 | 0.0 | 0.00 | 0.00 | 0.00 | 94 | 1007.3 |
| 20260903133704 | 52 | 202 | 0.0 | 0.0 | 0.00 | 0.00 | 0.00 | 94 | 1007.3 |
| 20260903133205 | 52 | 202 | 0.0 | 0.0 | 0.00 | 0.00 | 0.00 | 93 | 1007.3 |
| 20260903132204 | 52 | 202 | 0.0 | 0.0 | 0.00 | 0.00 | 0.00 | 93 | 1007.4 |
| 20260903131704 | 52 | 202 | 0.0 | 0.0 | 0.00 | 0.00 | 0.00 | 93 | 1007.3 |
| 20260903131204 | 52 | 202 | 0.0 | 0.0 | 0.00 | 0.00 | 0.00 | 93 | 1007.2 |
| 20260903130704 | 52 | 202 | 0.0 | 0.0 | 0.00 | 0.00 | 0.00 | 93 | 1007.2 |
| 20260903130204 | 52 | 202 | 0.0 | 0.0 | 0.00 | 0.00 | 0.00 | 93 | 1007.1 |
| 20260903125703 | 52 | 202 | 0.0 | 0.0 | 0.00 | 0.00 | 0.00 | 93 | 1007.1 |
| 20260903124704 | 52 | 202 | 0.0 | 0.0 | 0.00 | 0.00 | 0.00 | 93 | 1007.1 |
| 20260903124204 | 52 | 202 | 0.0 | 0.0 | 0.00 | 0.00 | 0.00 | 93 | 1007.1 |
| 20260903123704 | 52 | 202 | 0.0 | 0.0 | 0.00 | 0.00 | 0.00 | 93 | 1007.0 |
| 20260903123204 | 52 | 202 | 0.0 | 0.0 | 0.00 | 0.00 | 0.00 | 93 | 1007.0 |
| 20260903122704 | 52 | 202 | 0.0 | 0.0 | 0.00 | 0.00 | 0.00 | 93 | 1006.9 |
| 20260903122204 | 52 | 202 | 0.0 | 0.0 | 0.00 | 0.00 | 0.00 | 93 | 1007.0 |
| 20260903121205 | 52 | 202 | 0.0 | 1.0 | 0.00 | 0.00 | 0.00 | 93 | 1006.9 |
| 20260903120204 | 52 | 202 | 0.0 | 0.0 | 0.00 | 0.00 | 0.00 | 93 | 1006.7 |
| 20260903115704 | 52 | 202 | 0.0 | 0.0 | 0.00 | 0.00 | 0.00 | 93 | 1006.7 |
| 20260903114204 | 52 | 202 | 0.0 | 1.0 | 0.00 | 0.00 | 0.00 | 93 | 1006.6 |
| 20260903113206 | 51 | 221 | 0.0 | 2.0 | 0.00 | 0.00 | 0.00 | 93 | 1006.4 |
| 20260903112704 | 51 | 213 | 2.0 | 2.0 | 0.00 | 0.00 | 0.00 | 93 | 1006.4 |
| 20260903111704 | 51 | 193 | 1.0 | 1.0 | 0.00 | 0.00 | 0.00 | 93 | 1006.3 |
| 20260903111203 | 51 | 193 | 1.0 | 3.0 | 0.00 | 0.00 | 0.00 | 93 | 1006.3 |
| 20260903110206 | 51 | 275 | 1.0 | 2.0 | 0.00 | 0.00 | 0.00 | 94 | 1005.9 |
| 20260903105704 | 50 | 275 | 0.0 | 2.0 | 0.00 | 0.00 | 0.00 | 94 | 1005.9 |
| 20260903104704 | 50 | 255 | 1.0 | 2.0 | 0.00 | 0.00 | 0.00 | 94 | 1005.9 |
| 20260903104205 | 50 | 255 | 1.0 | 3.0 | 0.00 | 0.00 | 0.00 | 94 | 1005.8 |
| 20260903103705 | 49 | 260 | 2.0 | 3.0 | 0.00 | 0.00 | 0.00 | 94 | 1005.7 |
| 20260903103205 | 49 | 283 | 1.0 | 2.0 | 0.00 | 0.00 | 0.00 | 94 | 1005.8 |
| 20260903102704 | 49 | 216 | 0.0 | 1.0 | 0.00 | 0.00 | 0.00 | 94 | 1005.9 |
| 20260903101704 | 48 | 176 | 0.0 | 0.0 | 0.00 | 0.00 | 0.00 | 94 | 1005.8 |
| 20260903101203 | 48 | 176 | 0.0 | 0.0 | 0.00 | 0.00 | 0.00 | 94 | 1005.7 |
| 20260903100705 | 48 | 176 | 0.0 | 0.0 | 0.00 | 0.00 | 0.00 | 94 | 1005.8 |
| 20260903100206 | 48 | 176 | 0.0 | 0.0 | 0.00 | 0.00 | 0.00 | 93 | 1005.8 |
| 20260903095704 | 48 | 176 | 0.0 | 1.0 | 0.00 | 0.00 | 0.00 | 93 | 1005.8 |
| 20260903095204 | 48 | 171 | 1.0 | 2.0 | 0.00 | 0.00 | 0.00 | 93 | 1005.7 |
| 20260903094204 | 49 | 117 | 0.0 | 0.0 | 0.00 | 0.00 | 0.00 | 94 | 1005.7 |
| 20260903093704 | 49 | 117 | 0.0 | 1.0 | 0.00 | 0.00 | 0.00 | 93 | 1005.7 |
| 20260903093205 | 49 | 20 | 0.0 | 0.0 | 0.00 | 0.00 | 0.00 | 93 | 1005.7 |
| 20260903092704 | 49 | 20 | 0.0 | 0.0 | 0.00 | 0.00 | 0.00 | 93 | 1005.8 |
| 20260903092204 | 49 | 20 | 0.0 | 1.0 | 0.00 | 0.00 | 0.00 | 94 | 1005.7 |
| 20260903091706 | 49 | 33 | 0.0 | 1.0 | 0.00 | 0.00 | 0.00 | 93 | 1005.8 |
| 20260903091204 | 49 | 48 | 0.0 | 1.0 | 0.00 | 0.00 | 0.00 | 93 | 1005.8 |
| 20260903090704 | 49 | 101 | 0.0 | 1.0 | 0.00 | 0.00 | 0.00 | 93 | 1005.8 |
| 20260903085704 | 50 | 101 | 0.0 | 0.0 | 0.00 | 0.00 | 0.00 | 94 | 1005.5 |
| 20260903085203 | 50 | 101 | 0.0 | 1.0 | 0.00 | 0.00 | 0.00 | 94 | 1005.6 |
| 20260903084704 | 50 | 101 | 0.0 | 1.0 | 0.00 | 0.00 | 0.00 | 94 | 1005.7 |
| 20260903084204 | 50 | 101 | 0.0 | 1.0 | 0.00 | 0.00 | 0.00 | 95 | 1005.7 |
| 20260903083703 | 50 | 101 | 1.0 | 3.0 | 0.00 | 0.00 | 0.00 | 95 | 1005.7 |
| 20260903083205 | 50 | 284 | 0.0 | 1.0 | 0.00 | 0.00 | 0.00 | 94 | 1005.7 |
| 20260903082704 | 50 | 245 | 0.0 | 1.0 | 0.00 | 0.00 | 0.00 | 94 | 1005.8 |
| 20260903082203 | 49 | 245 | 0.0 | 1.0 | 0.00 | 0.00 | 0.00 | 95 | 1005.8 |
| 20260903081704 | 49 | 245 | 0.0 | 1.0 | 0.00 | 0.00 | 0.00 | 94 | 1005.7 |
| 20260903081204 | 49 | 245 | 1.0 | 2.0 | 0.00 | 0.00 | 0.00 | 94 | 1005.7 |
| 20260903080204 | 50 | 291 | 2.0 | 3.0 | 0.00 | 0.00 | 0.00 | 94 | 1005.5 |
| 20260903075704 | 50 | 291 | 1.0 | 2.0 | 0.00 | 0.00 | 0.00 | 94 | 1005.5 |
| 20260903075204 | 50 | 30 | 0.0 | 1.0 | 0.00 | 0.00 | 0.00 | 93 | 1005.5 |
| 20260903074705 | 50 | 30 | 0.0 | 1.0 | 0.00 | 0.00 | 0.00 | 94 | 1005.6 |
| 20260903074204 | 50 | 30 | 0.0 | 0.0 | 0.00 | 0.00 | 0.00 | 94 | 1005.6 |
| 20260903073703 | 50 | 30 | 0.0 | 0.0 | 0.00 | 0.00 | 0.00 | 94 | 1005.6 |
| 20260903073206 | 50 | 30 | 0.0 | 1.0 | 0.00 | 0.00 | 0.00 | 94 | 1005.6 |
| 20260903072703 | 50 | 30 | 1.0 | 1.0 | 0.00 | 0.00 | 0.00 | 94 | 1005.5 |
| 20260903072204 | 50 | 30 | 1.0 | 2.0 | 0.00 | 0.00 | 0.00 | 94 | 1005.6 |
| 20260903071705 | 50 | 110 | 1.0 | 1.0 | 0.00 | 0.00 | 0.00 | 94 | 1005.4 |
| 20260903070704 | 50 | 110 | 0.0 | 1.0 | 0.00 | 0.00 | 0.00 | 94 | 1005.4 |
| 20260903070206 | 50 | 110 | 1.0 | 2.0 | 0.00 | 0.00 | 0.00 | 95 | 1005.3 |
| 20260903065705 | 50 | 244 | 0.0 | 1.0 | 0.00 | 0.00 | 0.00 | 94 | 1005.2 |
| 20260903064704 | 50 | 244 | 0.0 | 1.0 | 0.00 | 0.00 | 0.00 | 95 | 1005.2 |
| 20260903064204 | 50 | 244 | 0.0 | 0.0 | 0.00 | 0.00 | 0.00 | 95 | 1005.3 |
| 20260903062203 | 50 | 244 | 0.0 | 1.0 | 0.00 | 0.00 | 0.00 | 94 | 1005.3 |
| 20260903061704 | 49 | 244 | 1.0 | 2.0 | 0.00 | 0.00 | 0.00 | 95 | 1005.3 |
| 20260903061204 | 49 | 224 | 1.0 | 3.0 | 0.00 | 0.00 | 0.00 | 94 | 1005.2 |
| 20260903060703 | 49 | 191 | 2.0 | 3.0 | 0.00 | 0.00 | 0.00 | 93 | 1005.3 |
| 20260903060204 | 49 | 201 | 1.0 | 3.0 | 0.00 | 0.00 | 0.00 | 94 | 1005.2 |
| 20260903055204 | 49 | 263 | 1.0 | 2.0 | 0.00 | 0.00 | 0.00 | 93 | 1005.2 |
| 20260903054705 | 50 | 199 | 2.0 | 3.0 | 0.00 | 0.00 | 0.00 | 94 | 1005.2 |
| 20260903054203 | 50 | 202 | 2.0 | 3.0 | 0.00 | 0.00 | 0.00 | 93 | 1005.2 |
| 20260903053704 | 50 | 218 | 0.0 | 2.0 | 0.00 | 0.00 | 0.00 | 93 | 1005.3 |
| 20260903053204 | 50 | 218 | 1.0 | 2.0 | 0.00 | 0.00 | 0.00 | 93 | 1005.4 |
| 20260903052703 | 50 | 218 | 0.0 | 0.0 | 0.00 | 0.00 | 0.00 | 93 | 1005.4 |
| 20260903052203 | 50 | 218 | 1.0 | 2.0 | 0.00 | 0.00 | 0.00 | 93 | 1005.4 |
| 20260903051705 | 50 | 218 | 1.0 | 2.0 | 0.00 | 0.00 | 0.00 | 93 | 1005.3 |
| 20260903050205 | 51 | 218 | 0.0 | 0.0 | 0.00 | 0.00 | 0.00 | 92 | 1005.4 |
| 20260903045703 | 51 | 218 | 0.0 | 0.0 | 0.00 | 0.00 | 0.00 | 92 | 1005.3 |
| 20260903045205 | 51 | 218 | 0.0 | 1.0 | 0.00 | 0.00 | 0.00 | 92 | 1005.3 |
| 20260903044706 | 51 | 218 | 0.0 | 2.0 | 0.00 | 0.00 | 0.00 | 91 | 1005.3 |
| 20260903044204 | 51 | 218 | 2.0 | 3.0 | 0.00 | 0.00 | 0.00 | 91 | 1005.2 |
| 20260903043704 | 52 | 216 | 3.0 | 3.0 | 0.00 | 0.00 | 0.00 | 90 | 1005.1 |
| 20260903043205 | 52 | 196 | 0.0 | 3.0 | 0.00 | 0.00 | 0.00 | 90 | 1005.1 |
| 20260903042204 | 53 | 305 | 1.0 | 2.0 | 0.00 | 0.00 | 0.00 | 90 | 1005.1 |
| 20260903041705 | 53 | 305 | 1.0 | 3.0 | 0.00 | 0.00 | 0.00 | 89 | 1005.0 |
| 20260903041204 | 53 | 169 | 0.0 | 2.0 | 0.00 | 0.00 | 0.00 | 87 | 1004.9 |
| 20260903040704 | 54 | 177 | 2.0 | 3.0 | 0.00 | 0.00 | 0.00 | 88 | 1004.8 |